Temp
62 61 61 62 61 61 61 62 62 62 63 62 62 62 62 62 62 64 58 67 68 68 66 73 72 72 71 66 67 66 53 52 58 59 60 67 61 68 66 64 66 70 67 67 67
61 61 61 61 61 61 61 61 61 61 62 62 62 62 62 62 58 58 69 68 67 67 68 68 66 69 63 63 63 57 51 57 64 63 61 66 62 66 61 64 64 66 68 66 64
61 61 61 61 60 61 61 61 61 61 61 62 62 62 61 61 56 63 67 67 67 67 69 70 71 68 60 64 60 59 52 62 64 62 64 63 63 66 59 60 66 66 64 64 62
61 60 60 61 60 60 60 61 60 60 61 61 62 61 61 61 48 65 66 66 66 68 67 66 65 59 57 57 64 54 61 63 64 61 61 59 64 62 62 64 67 68 68 66 63
60 60 60 60 60 61 60 60 60 60 60 60 61 61 61 55 56 69 65 66 67 66 63 63 60 59 55 60 61 55 58 63 63 61 59 62 58 58 60 66 70 70 69 65 64
60 59 59 60 59 60 60 60 60 60 60 60 61 61 57 46 68 71 67 65 67 64 63 63 62 64 58 59 56 58 58 59 62 61 61 56 56 58 60 66 66 69 63 64 66
59 59 59 59 59 59 59 60 59 60 60 60 60 60 53 53 69 69 67 64 66 65 61 65 65 59 59 55 62 58 51 56 58 60 58 57 52 54 63 66 64 65 63 63 65
59 58 58 58 59 59 59 59 59 60 60 60 60 57 46 66 68 65 66 64 66 67 64 66 65 60 57 58 57 51 50 44 54 59 56 54 47 61 61 59 62 63 62 64 65
58 58 58 58 58 58 58 59 59 60 61 61 54 52 46 62 59 65 65 61 62 63 63 68 61 56 55 48 45 48 40 45 51 56 54 51 48 58 58 56 57 60 63 64 63
57 57 57 58 58 58 58 58 59 59 60 59 57 47 55 54 61 63 65 64 59 57 56 56 53 47 47 44 34 41 41 47 46 51 49 47 48 56 61 60 59 61 62 61 63
56 57 57 57 57 58 56 54 48 47 50 48 50 53 59 61 63 59 63 59 59 54 46 50 43 39 46 50 51 48 46 45 49 51 46 47 50 55 59 59 58 60 62 62 63
56 57 56 57 57 57 55 47 50 46 40 52 53 54 61 62 53 57 62 51 50 43 50 45 39 50 54 53 50 47 44 43 50 52 47 46 47 55 57 57 60 60 60 62 62
55 56 55 56 56 53 50 50 59 57 40 47 52 51 54 58 51 53 56 53 48 45 46 43 49 52 52 50 48 46 44 43 44 47 49 44 43 48 55 59 60 61 62 63 63
54 54 55 55 48 50 47 56 57 56 32 40 45 51 54 55 48 60 59 55 50 45 47 46 53 50 48 48 50 43 51 49 46 41 34 44 30 46 52 53 56 57 58 60 61
52 53 54 55 47 46 53 58 55 49 17 46 48 62 56 47 52 51 59 54 47 47 48 42 45 45 44 48 51 45 50 48 46 40 38 38 34 43 50 50 55 57 56 57 58
50 52 52 50 47 48 52 55 46 28 17 37 49 45 45 47 52 53 51 56 56 49 50 47 50 49 48 51 51 50 46 45 44 39 24 36 37 39 48 53 55 55 58 57 57
50 51 52 52 42 51 50 44 27 21 41 35 38 44 44 40 43 47 44 41 38 33 34 43 43 47 50 43 47 45 40 25 24 23 24 40 36 44 51 55 54 55 56 55 54
49 48 51 51 50 50 44 31 21 30 33 47 43 43 38 43 41 45 41 36 46 44 36 32 27 42 47 45 40 40 41 28 21 22 28 34 32 41 55 54 54 57 58 54 52
50 43 44 48 51 46 35 23 25 33 40 39 42 35 35 43 42 41 39 38 43 47 34 33 33 48 47 51 46 37 33 43 30 22 26 33 41 51 54 55 52 51 53 52 51
41 39 40 50 50 41 28 24 28 39 44 42 32 38 30 36 37 37 39 45 43 48 51 43 31 39 46 49 49 43 47 32 29 19 22 29 35 42 44 50 52 51 50 53 52
38 31 42 49 46 33 22 25 29 37 42 38 35 36 38 36 38 37 39 44 48 48 49 44 38 31 41 37 39 37 35 41 40 34 27 23 33 51 55 56 52 53 51 52 52
33 27 44 46 28 29 25 27 35 33 37 37 41 36 35 40 38 37 38 44 52 51 42 47 39 28 33 41 48 47 43 44 33 25 30 30 37 52 52 53 54 52 52 51 53
31 30 43 41 21 23 29 28 31 30 33 30 30 34 39 35 32 40 42 50 51 50 45 47 36 29 27 34 40 35 44 46 46 37 30 30 34 52 51 50 50 50 50 49 50
31 24 30 33 32 27 25 25 25 33 32 35 32 32 32 32 36 35 39 45 50 50 47 48 38 35 30 35 38 30 35 43 42 29 36 37 40 44 45 47 47 47 48 48 48
31 27 30 23 25 27 29 27 25 24 33 36 29 29 28 25 28 29 38 43 44 48 45 40 31 36 37 39 41 37 33 35 35 41 35 41 38 47 49 48 47 48 47 46 42
29 27 31 29 30 27 29 25 25 28 28 27 26 30 31 26 29 28 34 37 38 44 43 40 30 32 31 37 36 34 38 36 37 38 40 42 40 50 53 53 46 48 46 45 44
32 35 31 28 27 25 25 27 28 31 32 34 32 30 28 30 36 34 37 35 37 39 39 37 33 31 27 34 32 28 36 34 37 42 42 36 46 51 49 52 51 49 47 47 47
MSLP
1019.03 1019.03 1018.85 1018.58 1018.46 1018.34 1018.00 1017.78 1017.41 1016.95 1016.77 1016.67 1016.54 1016.39 1016.15 1015.76 1015.37 1014.78 1014.32 1013.29 1012.99 1013.06 1012.94 1012.30 1012.17 1011.99 1011.88 1011.52 1011.39 1010.96 1010.53 1009.44 1008.48 1007.74 1007.39 1007.47 1007.52 1007.41 1007.61 1007.59 1007.69 1008.25 1009.08 1010.34 1011.22
1019.23 1019.14 1018.99 1018.83 1018.54 1018.43 1018.10 1017.81 1017.56 1017.12 1016.75 1016.51 1016.41 1016.29 1016.08 1015.73 1015.19 1014.13 1012.98 1013.11 1013.13 1013.21 1013.07 1012.44 1012.01 1011.86 1011.74 1011.48 1011.49 1011.23 1010.48 1009.34 1008.70 1008.37 1008.32 1008.13 1008.32 1007.99 1007.94 1007.96 1008.09 1008.74 1009.92 1011.04 1011.82
1019.30 1019.09 1019.05 1018.93 1018.68 1018.46 1018.17 1017.92 1017.66 1017.22 1016.79 1016.47 1016.36 1016.17 1016.02 1015.73 1014.86 1013.17 1013.03 1013.17 1013.22 1013.24 1013.07 1012.39 1011.97 1011.88 1011.79 1011.30 1011.37 1010.90 1010.33 1009.49 1009.23 1009.36 1009.32 1009.29 1009.00 1008.64 1008.55 1008.28 1007.97 1008.44 1009.43 1010.73 1011.74
1019.18 1019.05 1018.93 1018.79 1018.65 1018.48 1018.30 1018.03 1017.59 1017.30 1016.98 1016.74 1016.21 1016.16 1015.97 1015.73 1014.81 1013.28 1013.14 1013.22 1013.37 1013.16 1013.08 1012.53 1012.29 1012.03 1011.75 1011.29 1011.09 1010.96 1010.45 1010.15 1009.83 1010.06 1010.24 1010.04 1009.62 1009.24 1008.97 1008.77 1008.15 1008.26 1008.91 1010.09 1011.14
1019.01 1018.93 1018.81 1018.64 1018.47 1018.26 1018.15 1017.96 1017.67 1017.32 1017.02 1016.65 1016.24 1016.05 1015.75 1015.35 1013.74 1013.11 1013.16 1013.21 1013.49 1013.38 1012.96 1012.69 1012.23 1012.01 1011.51 1011.06 1011.06 1011.01 1010.95 1010.57 1010.18 1010.41 1010.61 1010.59 1010.22 1010.06 1009.13 1008.60 1008.16 1008.36 1008.91 1009.85 1010.57
1018.68 1018.67 1018.66 1018.55 1018.41 1018.24 1018.02 1017.85 1017.71 1017.50 1017.07 1016.69 1016.35 1016.17 1015.86 1014.93 1013.09 1012.97 1013.28 1013.41 1013.32 1013.42 1013.05 1012.73 1012.26 1011.91 1011.81 1011.26 1011.17 1011.21 1011.12 1010.85 1010.59 1010.56 1010.58 1010.73 1010.24 1010.17 1008.48 1008.02 1008.14 1008.27 1008.75 1009.24 1009.87
1018.21 1018.38 1018.35 1018.31 1018.19 1018.01 1017.86 1017.65 1017.59 1017.37 1017.08 1016.68 1016.33 1015.94 1015.32 1013.56 1012.84 1012.98 1013.19 1013.32 1013.35 1013.29 1013.10 1012.92 1012.55 1012.43 1011.96 1011.72 1011.41 1011.46 1011.56 1010.91 1010.41 1010.32 1010.64 1010.57 1010.10 1009.34 1007.77 1008.23 1008.03 1008.02 1008.24 1008.95 1009.31
1017.85 1017.82 1017.97 1018.05 1018.01 1017.91 1017.71 1017.51 1017.32 1017.12 1016.88 1016.64 1016.30 1016.07 1014.76 1012.87 1012.65 1012.81 1013.08 1013.11 1013.36 1013.33 1013.31 1013.01 1013.01 1012.81 1012.38 1012.24 1011.94 1011.87 1011.61 1011.00 1009.81 1009.65 1010.71 1010.86 1009.58 1008.34 1007.69 1007.49 1007.72 1007.78 1008.10 1008.31 1008.73
1017.43 1017.54 1017.56 1017.67 1017.64 1017.58 1017.49 1017.29 1017.05 1016.71 1016.43 1016.30 1016.36 1015.90 1013.83 1012.92 1012.77 1012.31 1012.68 1012.80 1013.18 1013.30 1013.36 1013.20 1013.30 1012.93 1012.65 1012.56 1012.29 1011.79 1011.49 1010.72 1009.98 1009.74 1010.44 1010.86 1009.73 1008.49 1008.01 1007.77 1007.89 1007.70 1007.56 1007.82 1008.11
1017.01 1017.02 1017.12 1017.17 1017.32 1017.25 1017.11 1016.89 1016.43 1016.27 1015.99 1015.94 1015.86 1015.72 1013.03 1012.04 1011.70 1011.87 1012.24 1012.64 1013.00 1013.39 1013.43 1013.41 1013.37 1013.11 1012.85 1012.69 1011.93 1011.30 1011.26 1010.55 1010.28 1010.39 1010.61 1010.76 1009.87 1008.91 1008.21 1008.03 1007.72 1007.77 1007.40 1007.47 1007.70
1016.39 1016.49 1016.64 1016.70 1016.78 1016.90 1017.00 1016.71 1016.40 1015.87 1015.35 1013.78 1013.09 1012.11 1011.15 1011.63 1011.76 1011.97 1012.06 1012.59 1012.79 1013.36 1013.22 1013.33 1013.17 1012.23 1012.12 1011.83 1011.21 1010.99 1010.98 1010.65 1009.97 1010.48 1010.69 1010.51 1009.61 1008.69 1008.00 1007.65 1007.42 1007.15 1007.15 1007.31 1007.42
1015.64 1015.80 1016.09 1016.17 1016.29 1016.36 1016.62 1016.20 1015.53 1016.02 1014.61 1013.34 1012.37 1012.19 1011.29 1011.35 1011.39 1011.63 1012.11 1012.44 1012.58 1012.68 1012.97 1013.16 1011.75 1011.87 1011.80 1011.68 1011.60 1011.53 1011.46 1011.14 1010.73 1010.57 1010.99 1010.54 1009.54 1008.29 1007.57 1006.80 1006.51 1006.67 1006.77 1006.72 1007.05
1015.05 1015.19 1015.41 1015.76 1015.89 1015.99 1015.90 1015.63 1015.19 1015.32 1014.67 1012.04 1011.26 1010.86 1010.90 1011.04 1010.78 1010.56 1011.41 1011.42 1011.72 1012.05 1011.92 1011.61 1010.90 1010.93 1011.25 1011.17 1011.34 1011.32 1011.40 1011.52 1011.49 1011.34 1011.16 1010.88 1009.21 1007.28 1005.74 1005.64 1005.79 1005.83 1005.82 1006.17 1006.39
1014.30 1014.60 1014.87 1015.35 1016.19 1015.41 1015.10 1015.17 1015.34 1015.49 1014.47 1010.33 1009.16 1008.08 1009.40 1010.66 1009.53 1009.65 1010.04 1010.25 1010.75 1010.85 1011.51 1011.40 1010.88 1010.75 1010.92 1010.67 1011.15 1011.18 1011.02 1011.56 1011.90 1012.27 1012.31 1011.42 1009.73 1007.45 1005.77 1005.34 1005.27 1005.13 1005.49 1005.49 1005.96
1013.63 1014.14 1014.44 1014.70 1014.98 1014.70 1014.43 1014.57 1015.21 1015.59 1013.59 1007.17 1006.45 1005.99 1006.69 1007.78 1007.29 1008.04 1009.32 1009.73 1009.60 1009.97 1010.48 1009.97 1010.17 1010.30 1010.44 1010.18 1010.98 1011.24 1011.09 1011.60 1012.22 1012.69 1012.78 1011.72 1011.21 1007.05 1005.57 1005.23 1004.95 1004.52 1004.57 1004.99 1005.78
1013.41 1013.24 1013.89 1014.19 1014.54 1014.95 1014.57 1014.36 1015.23 1015.14 1009.93 1006.32 1005.34 1005.56 1006.53 1007.52 1006.94 1007.18 1008.69 1009.30 1009.08 1009.64 1009.63 1009.73 1009.83 1009.77 1009.90 1010.19 1010.78 1011.40 1012.12 1012.51 1012.95 1013.52 1013.33 1011.53 1010.48 1006.58 1005.35 1004.21 1003.90 1003.69 1003.96 1004.55 1005.58
1013.04 1012.57 1012.70 1013.09 1013.66 1014.53 1014.60 1014.29 1014.04 1011.04 1006.73 1005.77 1005.48 1005.73 1006.12 1006.61 1007.50 1007.24 1008.07 1008.56 1008.09 1009.17 1009.09 1009.89 1009.87 1009.83 1009.90 1010.46 1010.97 1011.56 1012.15 1013.51 1014.27 1014.33 1012.39 1010.71 1009.89 1005.58 1004.26 1003.43 1003.52 1003.61 1004.18 1004.79 1005.78
1012.28 1012.21 1011.76 1012.02 1012.58 1014.02 1014.40 1013.66 1010.86 1007.01 1006.14 1004.56 1005.23 1005.75 1005.75 1006.06 1006.92 1006.75 1007.39 1007.55 1007.33 1007.07 1008.10 1008.71 1009.58 1009.22 1009.51 1009.58 1010.17 1011.11 1011.31 1011.90 1013.19 1013.49 1012.13 1010.73 1008.21 1004.82 1003.31 1002.76 1002.79 1003.22 1003.99 1005.22 1006.27
1011.33 1011.86 1011.07 1011.50 1011.93 1013.00 1013.22 1010.42 1008.00 1005.97 1006.06 1005.78 1005.54 1005.88 1005.91 1005.36 1005.62 1006.44 1006.13 1005.95 1006.12 1006.11 1006.84 1007.59 1008.00 1007.70 1008.40 1008.88 1009.56 1011.12 1010.93 1010.91 1011.99 1012.64 1012.04 1009.45 1006.68 1004.42 1003.24 1002.87 1003.00 1003.64 1004.32 1005.25 1006.17
1010.65 1011.04 1010.67 1010.82 1011.42 1012.26 1012.08 1010.02 1008.41 1007.22 1006.22 1006.13 1005.72 1005.38 1005.40 1005.37 1005.72 1006.22 1005.65 1004.74 1005.42 1005.89 1006.04 1006.35 1007.49 1007.87 1008.45 1009.13 1008.90 1009.13 1009.94 1011.23 1011.80 1012.16 1011.27 1008.30 1006.41 1003.73 1002.87 1002.72 1002.96 1003.78 1004.22 1004.98 1005.78
1010.28 1009.58 1009.13 1010.08 1010.97 1010.97 1009.60 1009.63 1009.36 1008.30 1007.52 1006.59 1006.17 1005.62 1005.39 1005.21 1005.18 1004.89 1003.99 1004.14 1004.31 1004.78 1005.93 1006.38 1006.85 1008.44 1008.33 1007.88 1007.77 1009.01 1009.08 1009.08 1009.84 1009.91 1009.25 1007.95 1004.43 1002.08 1001.82 1001.85 1002.51 1002.99 1003.88 1004.86 1005.76
1008.09 1007.53 1007.89 1009.17 1010.21 1009.26 1008.99 1009.47 1009.02 1008.45 1008.71 1007.63 1006.64 1006.94 1006.03 1005.50 1004.77 1004.38 1003.54 1003.31 1003.50 1004.28 1004.74 1005.45 1006.68 1007.90 1007.99 1008.08 1007.84 1007.58 1006.84 1007.53 1007.91 1008.40 1008.07 1006.95 1002.43 1001.55 1001.29 1001.37 1002.08 1002.98 1003.88 1004.58 1005.42
1007.62 1008.12 1007.82 1008.55 1008.41 1008.90 1008.82 1008.99 1009.27 1009.11 1009.18 1008.92 1008.06 1007.79 1006.83 1006.18 1005.58 1004.62 1003.77 1003.36 1003.29 1003.45 1003.77 1004.80 1005.76 1007.35 1008.64 1009.08 1007.70 1006.95 1007.13 1007.15 1006.96 1007.39 1007.34 1006.74 1002.43 1001.06 1001.46 1001.79 1002.50 1003.38 1004.20 1004.89 1005.67
1007.98 1007.93 1007.53 1008.06 1007.74 1008.04 1008.47 1008.44 1008.67 1008.79 1008.07 1008.47 1009.03 1009.11 1007.87 1006.93 1006.68 1005.10 1004.22 1003.88 1003.32 1003.38 1004.19 1004.50 1004.97 1005.27 1004.60 1003.79 1006.03 1007.28 1006.94 1006.94 1007.21 1007.59 1005.35 1004.39 1001.91 1002.07 1002.17 1002.38 1003.03 1003.57 1004.40 1005.05 1005.89
1005.54 1005.84 1005.31 1006.10 1006.72 1006.95 1007.47 1007.69 1007.42 1007.44 1008.00 1008.40 1008.44 1008.85 1008.65 1007.52 1007.16 1006.25 1004.90 1004.37 1004.10 1003.58 1004.54 1005.33 1004.41 1004.85 1004.72 1004.76 1005.34 1005.34 1006.30 1006.47 1006.65 1005.16 1005.93 1001.79 1002.42 1002.08 1001.97 1002.17 1002.81 1003.44 1004.41 1005.42 1006.10
1005.19 1005.44 1005.34 1005.08 1005.34 1006.04 1006.19 1006.59 1006.75 1006.99 1007.29 1007.02 1007.78 1008.26 1007.89 1007.18 1007.15 1007.23 1006.90 1005.79 1004.88 1004.38 1004.65 1005.47 1004.63 1004.91 1004.73 1004.65 1005.33 1005.14 1005.38 1005.35 1005.21 1004.40 1004.30 1002.03 1001.56 1001.64 1001.60 1001.87 1002.49 1003.09 1004.22 1005.16 1005.69
1004.07 1004.71 1004.63 1004.89 1004.87 1005.36 1005.14 1005.24 1005.25 1005.57 1005.97 1005.99 1006.57 1006.67 1006.46 1006.92 1007.37 1007.49 1007.70 1007.53 1006.78 1005.41 1004.68 1005.21 1004.83 1005.33 1004.59 1004.49 1004.87 1004.43 1003.94 1004.58 1004.11 1003.21 1002.78 1002.24 998.83 1001.22 1000.95 1001.35 1001.94 1002.52 1003.25 1004.01 1004.73
Wind_Speed
14 14 13 12 12 13 14 14 15 14 8 9 10 12 13 14 16 10 8 3 2 2 3 2 5 6 5 3 3 3 3 5 8 5 2 7 2 5 2 3 1 4 5 10 14
13 13 14 13 12 13 13 14 14 15 16 9 10 11 12 14 12 13 7 2 2 2 4 6 5 6 4 4 3 3 3 7 6 8 6 7 2 6 1 6 4 6 7 12 12
12 13 12 12 12 13 13 13 14 14 15 12 8 10 12 12 6 2 5 2 5 4 7 7 7 4 6 5 4 5 4 4 7 8 9 6 7 5 4 6 7 10 15 15 10
11 13 13 12 11 12 13 13 14 14 14 16 8 8 10 5 3 3 4 4 5 5 5 4 5 4 5 7 9 5 6 8 4 4 4 5 6 7 6 10 2 6 6 13 12
10 11 12 12 13 14 13 12 13 14 15 14 9 6 5 4 7 4 4 5 4 4 7 7 7 6 5 5 8 5 6 7 5 4 4 8 9 8 12 12 10 3 7 10 9
12 11 10 11 11 12 14 12 12 13 14 14 11 3 4 6 2 2 4 2 4 6 5 7 3 6 4 7 4 4 5 8 7 7 6 5 6 5 6 11 12 11 10 9 10
10 11 12 11 12 13 14 13 10 12 14 14 12 4 5 14 4 1 5 2 3 5 6 6 6 3 2 4 4 3 6 8 9 9 7 3 8 14 20 13 10 7 4 10 10
12 9 9 11 13 13 13 14 13 14 15 11 8 2 7 3 4 6 6 3 2 4 4 6 4 6 3 2 3 4 4 4 2 9 4 4 7 8 3 2 10 12 8 9 9
15 13 11 12 12 12 14 14 13 16 16 15 4 2 9 4 6 9 9 4 4 3 2 2 3 4 3 3 3 5 5 8 4 3 7 7 6 4 3 2 6 8 9 9 10
16 14 13 13 14 13 13 14 13 14 10 5 1 3 8 8 6 5 9 6 3 6 3 4 4 3 4 6 7 6 4 6 7 5 3 6 14 14 12 7 7 7 8 6 8
18 16 16 16 16 16 9 7 7 7 12 10 12 11 6 6 4 6 11 9 5 4 6 6 6 12 14 14 8 5 7 7 3 4 1 8 13 12 9 8 9 8 8 8 9
21 18 17 15 17 16 9 7 8 3 8 22 23 21 20 2 4 11 12 10 9 9 9 5 16 10 11 13 11 9 7 7 8 4 2 9 14 14 10 10 11 10 10 10 8
21 18 15 12 16 12 12 16 12 5 7 14 21 23 20 12 10 15 16 9 11 14 15 13 0 19 15 11 12 11 11 6 6 1 7 8 11 11 11 18 13 10 10 9 12
19 15 13 10 7 8 12 13 7 2 6 10 13 16 21 15 14 18 22 11 7 16 13 14 17 4 15 13 10 10 9 9 5 2 4 5 8 7 7 5 6 9 9 10 9
17 14 13 14 1 9 7 11 8 1 8 8 14 10 16 29 14 23 20 16 15 13 11 8 7 16 10 10 8 3 2 7 5 3 5 5 4 8 8 4 8 11 12 10 9
28 20 17 11 6 7 6 10 5 7 17 7 12 15 17 28 10 17 18 11 6 12 14 12 3 9 6 7 12 8 6 7 5 1 4 9 9 6 7 9 8 5 8 9 9
23 24 19 11 6 10 11 6 7 15 6 8 9 15 18 17 23 16 21 22 12 10 15 11 9 2 4 6 4 7 7 2 2 0 8 3 6 12 9 10 4 3 6 9 9
22 28 18 10 10 7 9 8 15 17 18 9 11 14 19 17 25 17 21 20 24 13 11 13 7 15 7 8 11 12 10 7 8 6 4 3 11 8 14 5 3 6 6 8 8
18 11 9 11 10 10 9 16 12 12 21 15 16 16 16 18 9 24 24 24 21 23 10 11 9 18 18 9 14 7 10 3 4 0 2 7 6 9 8 11 6 6 5 9 9
11 10 12 13 13 8 12 22 12 15 15 27 26 11 14 18 15 23 18 18 22 24 12 4 3 5 12 12 11 9 10 5 2 5 5 4 7 11 1 8 8 8 11 9 11
9 7 11 16 10 9 12 10 13 17 18 18 14 25 14 14 20 20 15 12 27 22 24 6 3 2 6 14 17 6 8 7 7 6 7 1 9 11 16 10 5 9 9 9 9
4 8 6 11 13 7 15 7 7 12 14 13 12 14 19 21 17 22 22 15 15 22 25 24 3 5 18 1 10 20 15 18 8 5 4 3 11 3 6 7 7 5 8 8 10
3 5 3 11 13 17 10 8 14 19 20 4 4 9 6 12 18 20 20 16 16 14 23 19 9 8 3 5 9 11 19 19 11 4 8 8 7 5 8 7 6 5 7 7 8
5 5 7 8 7 19 17 20 15 10 15 15 16 18 17 15 15 12 16 9 16 18 7 14 15 25 20 23 11 10 10 20 18 5 15 18 15 1 5 6 7 6 7 9 9
6 6 6 8 16 18 21 16 20 19 21 16 13 22 19 15 18 14 19 13 11 12 5 6 13 22 22 18 7 19 17 17 21 28 16 29 19 16 7 7 7 8 7 7 7
5 6 4 6 7 24 22 24 28 24 13 20 18 14 20 15 10 8 13 15 15 10 13 16 7 7 16 22 17 18 17 22 25 27 22 27 24 5 9 7 6 8 9 8 10
2 2 3 3 10 9 17 24 22 22 22 21 19 18 19 18 17 16 17 18 21 13 11 9 6 8 19 22 19 20 24 19 23 26 25 20 35 6 8 10 8 10 13 13 11
Wind_Direction
356 350 350 1 356 347 350 354 360 359 333 332 333 334 333 331 319 300 266 283 79 349 303 259 231 225 250 258 302 295 282 251 258 251 312 110 256 121 41 327 66 134 54 100 119
336 345 343 343 349 350 350 343 343 353 356 324 329 331 332 329 306 276 239 160 134 296 255 235 199 201 221 224 208 233 229 242 7 18 11 19 2 334 171 208 209 119 98 114 134
320 322 322 333 334 338 342 347 346 341 350 337 322 331 329 320 305 23 33 227 202 240 279 291 293 210 231 199 214 213 231 285 5 30 14 330 320 258 283 266 219 198 165 154 164
308 317 315 314 325 327 327 335 341 340 332 341 317 328 321 297 309 46 356 240 214 230 262 228 232 203 230 222 215 262 263 279 326 76 346 291 344 313 264 252 13 40 124 157 173
287 301 311 311 316 313 317 323 333 337 332 326 319 336 321 263 259 95 62 116 203 223 222 216 219 224 231 233 232 229 271 287 275 315 269 275 274 264 275 283 293 173 126 169 182
279 270 281 298 302 312 313 307 324 329 332 324 314 303 247 258 104 115 97 138 249 230 231 252 271 248 320 280 219 35 309 297 296 275 243 224 259 294 250 241 244 248 180 197 194
268 270 274 282 289 298 309 305 305 318 324 314 308 258 254 236 122 360 165 210 257 262 266 255 305 282 261 255 277 292 304 280 236 221 235 48 274 231 243 245 253 248 212 194 208
258 253 261 275 283 291 293 292 293 301 313 299 287 239 250 301 325 177 201 194 246 265 318 301 307 284 262 24 222 237 198 293 17 194 145 130 275 286 179 272 228 232 218 197 208
259 259 257 270 271 279 283 288 288 290 295 292 178 214 263 129 218 206 186 178 155 191 247 260 241 242 151 232 244 198 253 204 253 228 118 180 275 54 52 308 290 289 234 203 196
262 258 261 266 266 273 276 286 284 283 278 165 269 286 239 220 158 183 183 179 152 152 139 193 218 220 208 186 204 211 219 241 246 177 191 211 255 271 274 235 232 251 293 203 178
260 259 258 263 261 263 278 275 258 227 217 211 188 215 75 115 103 193 164 174 174 193 178 208 207 206 205 214 255 358 324 290 249 100 182 235 256 261 255 267 269 248 215 233 202
260 254 256 263 257 248 248 235 284 138 292 228 257 223 253 132 232 192 167 173 190 191 200 173 233 217 219 220 237 265 272 275 301 123 103 274 268 269 247 237 222 225 231 222 197
251 247 248 265 261 256 241 238 254 338 268 249 229 235 224 221 226 189 180 194 185 194 200 210 124 203 226 221 218 224 239 240 246 334 231 266 275 239 250 237 239 237 226 215 200
239 243 241 245 285 235 235 228 230 307 269 242 210 230 211 230 243 222 190 170 181 206 199 235 233 227 211 227 201 237 210 230 263 344 244 49 286 314 303 182 196 231 221 218 210
230 238 238 214 201 225 201 200 178 277 268 193 186 171 183 187 128 195 181 215 199 189 181 205 193 205 223 207 180 219 117 186 206 230 328 205 252 257 239 246 237 230 215 208 200
282 213 225 241 204 262 303 172 109 186 236 214 153 172 161 197 211 148 171 217 199 209 226 207 8 180 194 179 194 135 105 72 65 111 267 193 186 231 209 218 231 244 222 179 176
268 256 211 202 207 198 253 194 204 211 188 201 167 172 186 182 209 167 181 200 175 184 206 201 194 185 192 112 141 178 150 61 0 312 230 280 203 247 302 283 243 222 198 160 144
266 280 222 213 173 226 214 237 209 223 219 131 154 174 199 164 207 197 185 197 213 199 160 187 199 173 183 181 175 194 180 154 190 198 231 326 231 259 221 249 193 163 117 140 146
252 250 231 218 192 171 239 221 222 203 199 246 157 175 210 194 187 203 200 208 202 206 177 184 238 182 176 181 141 185 224 212 70 105 22 218 265 285 233 252 228 186 180 167 160
246 233 234 216 190 182 227 247 253 258 263 206 234 193 188 209 205 192 196 212 215 213 224 195 141 193 170 199 209 156 150 137 260 181 235 268 267 235 175 228 234 197 193 185 166
245 225 224 206 180 203 223 234 247 274 271 247 243 234 222 194 214 202 206 220 201 205 213 201 172 203 146 209 183 138 199 199 155 200 184 216 255 203 223 230 236 223 174 173 169
228 192 170 157 213 232 232 182 220 267 294 285 259 259 259 240 214 215 224 199 205 206 200 212 222 161 202 267 208 210 207 191 175 217 236 162 248 106 111 145 135 129 174 172 164
234 225 193 177 207 232 219 222 225 247 249 244 284 245 259 255 258 242 238 221 243 219 205 193 212 203 121 324 245 222 221 214 235 75 210 185 260 213 136 120 124 143 150 149 155
178 229 204 210 220 218 231 233 231 214 249 242 252 283 266 256 277 269 241 252 222 228 229 215 211 217 218 219 135 191 203 225 211 216 218 220 226 175 160 182 154 158 159 161 165
181 215 190 198 223 215 218 226 233 236 235 236 239 241 261 229 243 267 270 240 271 239 216 194 218 213 231 251 212 198 191 213 220 222 211 237 236 224 205 203 192 193 174 161 172
197 197 148 225 205 211 219 225 227 232 202 220 225 229 234 268 252 254 262 265 236 235 227 218 229 241 240 240 237 243 212 206 210 227 227 242 261 163 218 245 179 182 171 185 195
206 157 100 219 217 206 218 231 228 226 234 233 219 222 235 240 246 266 269 264 281 284 252 265 251 231 242 232 231 235 230 211 230 232 213 228 241 271 229 217 214 213 189 194 200